Probability
0 0 0 0 0 0 0 0 0 0 0 0 0 0 0 0 0 0 0 0 0 0 0 0 0 0 0 0 0 0 0 0 0 0 0 0 0 0 0 0 0 0 0 0
0 0 0 0 0 0 0 0 0 0 0 0 0 0 0 0 0 0 0 0 0 0 0 0 0 0 0 0 0 0 0 0 0 0 0 0 0 0 0 0 0 0 0 0
0 0 0 0 0 0 0 0 0 0 0 0 0 0 0 0 0 0 0 0 0 0 0 0 0 0 0 0 0 0 0 0 0 0 0 0 0 0 0 0 0 0 0 0
0 0 0 0 0 0 0 0 0 0 0 0 0 0 0 0 0 0 0 0 0 0 0 0 0 0 0 0 0 0 0 0 0 0 0 0 0 0 0 0 0 0 0 0
0 0 0 0 0 0 0 0 0 0 0 0 0 0 0 0 0 0 0 0 0 0 0 0 0 0 0 0 0 0 0 0 0 0 0 0 0 0 0 0 0 0 0 0
0 0 0 0 0 0 0 0 0 0 0 0 0 0 0 0 0 0 0 0 0 0 0 0 0 0 0 0 0 0 0 0 0 0 0 0 0 0 0 0 0 0 0 0
0 0 0 0 0 0 0 0 0 0 0 0 0 0 0 0 0 0 0 0 0 0 0 0 0 0 0 0 0 0 0 0 0 0 0 0 0 0 0 0 0 0 0 0
0 0 0 0 0 0 0 0 0 0 0 0 0 0 0 0 0 0 0 0 0 0 0 0 0 0 0 0 0 0 0 0 0 0 0 0 0 0 0 0 0 0 0 0
0 0 0 0 0 0 0 0 0 0 0 0 0 0 0 0 0 0 0 0 0 0 0 0 0 0 0 0 0 0 0 0 0 0 0 0 0 0 0 0 0 0 0 0
0 0 0 0 0 0 0 0 0 0 0 0 0 0 0 0 0 0 0 0 0 0 0 0 0 0 0 0 0 0 0 0 0 0 0 0 0 0 0 0 0 0 0 0
0 0 0 0 0 0 0 0 0 0 0 0 0 0 0 0 0 0 0 0 0 0 0 0 0 0 0 0 0 0 0 0 0 0 0 0 0 0 0 0 0 0 0 0
0 0 0 0 0 0 0 0 0 0 0 0 0 0 0 0 0 0 0 0 0 0 0 0 0 0 0 0 0 0 0 0 0 0 0 0 0 0 0 0 0 0 0 0
0 0 0 0 0 0 0 0 0 0 0 0 0 0 0 0 0 0 0 0 0 0 0 0 0 0 0 0 0 0 0 0 0 0 0 0 0 0 0 0 0 0 0 0
0 0 0 0 0 0 0 0 0 0 0 0 0 0 0 0 0 0 0 0 0 0 0 0 0 0 0 0 0 0 0 0 0 0 0 0 0 0 0 0 0 0 0 0
0 0 0 0 0 0 0 0 0 0 0 0 0 0 0 0 0 0 0 0 0 0 0 0 0 0 0 0 0 0 0 0 0 0 0 0 0 0 0 0 0 0 0 0
0 0 0 0 0 0 0 0 0 0 0 0 0 0 0 0 0 0 0 0 0 0 0 0 0 0 0 0 0 0 0 0 0 0 0 0 0 0 0 0 0 0 0 0
0 0 0 0 0 0 0 0 0 0 0 0 0 0 0 0 0 0 0 0 0 0 0 0 0 0 0 0 0 0 0 0 0 0 0 0 0 0 0 0 0 0 0 0
0 0 0 0 0 0 0 0 0 0 0 0 0 0 0 0 0 0 0 0 0 0 0 0 0 0 0 0 0 0 0 0 0 0 0 0 0 0 0 0 0 0 0 0
0 0 0 0 0 0 0 0 0 0 0 0 0 0 0 0 0 0 0 0 0 0 0 0 0 0 0 0 0 0 0 0 0 0 0 0 0 0 0 0 0 0 0 0
0 0 0 0 0 0 0 0 0 0 0 0 0 0 0 0 0 0 0 0 0 0 0 0 0 0 0 0 0 0 0 0 0 0 0 0 0 0 0 0 0 0 0 0
0 0 0 0 0 0 0 0 0 0 0 0 0 0 0 0 0 0 0 0 0 0 0 0 0 0 0 0 0 0 0 0 0 0 0 0 0 0 0 0 0 0 0 0
0 0 0 0 0 0 0 0 0 0 0 0 0 0 0 0 0 0 0 0 0 0 0 0 0 0 0 0 0 0 0 0 0 0 0 0 0 0 0 0 0 0 0 0
0 0 0 0 0 0 0 0 0 0 0 0 0 0 0 0 0 0 0 0 0 0 0 0 0 0 0 0 0 0 0 0 0 0 0 0 0 0 0 0 0 0 0 0
0 0 0 0 0 0 0 0 0 0 0 0 0 0 0 0 0 0 0 0 0 0 0 0 0 0 0 0 0 0 0 0 0 0 0 0 0 0 0 0 0 0 0 0
0 0 0 0 0 0 0 0 0 0 0 0 0 0 0 0 0 0 0 0 0 0 0 0 0 0 0 0 0 0 0 0 0 0 0 0 0 0 0 0 0 0 0 0
0 0 0 0 0 0 0 0 0 0 0 0 0 0 0 0 0 0 0 0 0 0 0 0 0 0 0 0 0 0 0 0 0 0 0 0 0 0 0 0 0 0 0 0
Height
5819 5822 5824 5824 5823 5823 5822 5822 5823 5822 5820 5821 5821 5822 5822 5824 5825 5826 5827 5827 5827 5828 5828 5828 5827 5827 5827 5827 5828 5828 5828 5828 5828 5828 5827 5827 5826 5826 5825 5824 5823 5822 5820 5819
5812 5814 5816 5815 5815 5815 5815 5815 5815 5815 5812 5812 5812 5813 5815 5816 5819 5819 5819 5820 5820 5821 5821 5820 5820 5820 5820 5820 5820 5821 5821 5821 5821 5821 5821 5820 5819 5819 5818 5817 5815 5814 5812 5810
5803 5807 5807 5807 5807 5807 5807 5807 5808 5807 5803 5804 5804 5804 5808 5809 5810 5812 5813 5812 5812 5813 5813 5812 5812 5812 5812 5812 5813 5813 5813 5814 5814 5814 5813 5813 5812 5811 5810 5808 5807 5805 5803 5801
5793 5797 5798 5799 5799 5799 5798 5799 5799 5799 5796 5794 5795 5791 5800 5803 5803 5805 5806 5804 5803 5804 5804 5803 5803 5803 5804 5804 5804 5805 5805 5806 5806 5806 5805 5805 5804 5802 5801 5799 5797 5795 5793 5790
5784 5787 5787 5789 5791 5790 5789 5790 5791 5789 5787 5784 5785 5783 5786 5793 5794 5797 5797 5794 5792 5794 5795 5794 5794 5795 5795 5795 5796 5797 5797 5797 5797 5797 5796 5796 5794 5793 5791 5789 5787 5785 5782 5779
5774 5775 5778 5780 5782 5781 5780 5781 5780 5778 5776 5773 5779 5777 5771 5780 5784 5787 5787 5785 5783 5784 5784 5785 5785 5786 5786 5787 5787 5788 5788 5788 5788 5788 5787 5786 5785 5783 5781 5779 5776 5773 5770 5767
5764 5765 5766 5769 5771 5771 5771 5771 5769 5766 5765 5764 5768 5765 5764 5769 5773 5775 5775 5774 5773 5774 5775 5775 5776 5777 5777 5778 5779 5779 5779 5779 5779 5778 5777 5776 5774 5772 5770 5767 5764 5761 5757 5754
5751 5753 5756 5758 5760 5759 5759 5759 5759 5758 5755 5754 5754 5752 5757 5759 5761 5764 5764 5763 5763 5764 5765 5766 5767 5768 5768 5769 5769 5769 5769 5769 5769 5768 5766 5765 5763 5760 5758 5755 5751 5748 5744 5740
5739 5740 5743 5746 5747 5747 5747 5748 5751 5748 5744 5742 5742 5743 5746 5748 5751 5752 5752 5752 5753 5754 5755 5757 5758 5759 5759 5759 5760 5760 5759 5759 5758 5756 5754 5752 5750 5747 5744 5741 5737 5733 5729 5725
5725 5726 5728 5730 5733 5735 5736 5737 5738 5735 5734 5732 5731 5733 5735 5738 5740 5741 5742 5743 5744 5745 5747 5748 5749 5749 5749 5749 5749 5749 5748 5747 5746 5744 5742 5739 5736 5733 5730 5726 5723 5718 5714 5709
5711 5712 5714 5716 5719 5723 5724 5724 5723 5723 5723 5722 5721 5725 5726 5726 5728 5731 5733 5734 5735 5736 5737 5738 5738 5739 5739 5739 5738 5737 5736 5735 5733 5730 5728 5725 5722 5718 5715 5711 5707 5702 5697 5692
5698 5698 5699 5703 5706 5707 5707 5709 5710 5712 5713 5712 5711 5715 5714 5716 5717 5720 5723 5724 5724 5725 5726 5727 5727 5728 5727 5727 5726 5725 5723 5721 5719 5716 5713 5709 5706 5703 5699 5695 5691 5686 5680 5674
5684 5683 5686 5688 5690 5692 5694 5698 5699 5700 5700 5699 5698 5704 5704 5706 5707 5709 5711 5712 5712 5713 5714 5715 5715 5715 5714 5713 5712 5710 5709 5706 5703 5700 5697 5694 5690 5686 5682 5678 5673 5668 5662 5656
5667 5668 5673 5677 5678 5678 5680 5684 5686 5685 5684 5686 5689 5693 5695 5695 5695 5697 5698 5699 5700 5700 5701 5701 5701 5701 5700 5699 5697 5696 5693 5690 5687 5684 5681 5677 5674 5669 5665 5660 5655 5649 5643 5637
5652 5655 5659 5664 5667 5665 5665 5668 5671 5671 5673 5674 5678 5680 5684 5683 5684 5685 5685 5686 5687 5687 5687 5687 5686 5686 5685 5684 5682 5680 5677 5674 5671 5668 5664 5661 5656 5652 5647 5642 5636 5630 5625 5618
5638 5641 5644 5647 5652 5651 5650 5655 5656 5657 5659 5661 5664 5668 5673 5672 5671 5671 5672 5672 5673 5672 5672 5672 5671 5671 5669 5668 5665 5663 5661 5658 5654 5651 5648 5643 5639 5634 5629 5623 5617 5612 5606 5599
5623 5626 5628 5631 5636 5631 5633 5646 5645 5645 5647 5649 5650 5658 5659 5656 5656 5657 5658 5658 5658 5657 5657 5657 5656 5655 5653 5651 5649 5647 5644 5641 5638 5634 5630 5626 5621 5616 5610 5605 5599 5593 5587 5580
5609 5612 5613 5614 5615 5610 5627 5634 5632 5631 5633 5635 5637 5643 5643 5642 5642 5642 5643 5643 5643 5643 5642 5641 5640 5639 5637 5635 5633 5630 5627 5625 5622 5617 5613 5609 5603 5598 5592 5587 5581 5575 5568 5561
5595 5597 5598 5598 5596 5596 5612 5617 5617 5615 5619 5625 5623 5625 5626 5626 5625 5627 5628 5628 5629 5627 5626 5625 5623 5622 5621 5619 5616 5613 5611 5608 5605 5601 5596 5590 5585 5580 5574 5569 5562 5555 5549 5542
5579 5582 5583 5582 5580 5582 5599 5602 5600 5598 5601 5612 5608 5609 5609 5609 5609 5614 5612 5611 5611 5610 5610 5609 5607 5605 5604 5602 5599 5596 5594 5591 5588 5583 5578 5572 5567 5562 5557 5550 5544 5537 5530 5523
5564 5565 5566 5568 5566 5568 5582 5584 5584 5583 5591 5593 5592 5591 5592 5593 5594 5596 5595 5594 5594 5594 5593 5592 5590 5588 5586 5584 5582 5579 5576 5573 5569 5564 5559 5555 5550 5544 5538 5531 5525 5518 5511 5505
5548 5550 5552 5553 5552 5559 5566 5567 5568 5569 5572 5574 5574 5575 5576 5576 5577 5578 5578 5578 5577 5576 5575 5574 5572 5570 5569 5567 5564 5561 5558 5554 5549 5545 5541 5536 5531 5525 5519 5512 5506 5499 5493 5486
5532 5536 5537 5539 5542 5545 5548 5550 5551 5553 5555 5557 5558 5559 5560 5560 5560 5560 5560 5560 5560 5559 5558 5556 5554 5552 5550 5548 5545 5542 5538 5534 5530 5526 5522 5517 5511 5506 5500 5494 5488 5481 5475 5468
5516 5519 5521 5523 5526 5529 5532 5533 5535 5537 5539 5541 5542 5543 5544 5544 5544 5543 5543 5542 5542 5541 5539 5538 5535 5533 5531 5528 5525 5522 5518 5514 5510 5506 5502 5497 5492 5487 5481 5475 5469 5463 5457 5450
5501 5503 5505 5506 5510 5513 5515 5517 5519 5521 5523 5524 5525 5526 5527 5527 5527 5526 5526 5525 5524 5522 5521 5519 5517 5514 5511 5509 5506 5502 5499 5495 5491 5487 5482 5478 5473 5467 5462 5456 5451 5445 5440 5433
5487 5489 5490 5491 5495 5496 5500 5501 5503 5505 5506 5507 5508 5509 5509 5509 5509 5509 5508 5507 5505 5504 5502 5500 5498 5495 5492 5489 5486 5483 5479 5475 5471 5467 5463 5458 5454 5448 5443 5438 5433 5427 5422 5416
Wind_Speed
39 39 36 34 36 37 37 37 34 34 37 35 35 35 35 33 32 31 30 30 30 30 30 31 31 31 31 30 30 30 29 28 28 27 27 27 28 29 29 30 32 33 34 36
43 41 37 37 38 37 37 36 34 34 38 37 37 37 36 35 32 33 33 32 32 32 33 33 33 33 33 32 32 31 30 30 30 29 29 29 30 31 32 33 35 36 38 39
45 42 40 39 38 38 37 37 35 36 40 40 40 40 37 36 35 33 34 35 35 35 35 36 35 35 34 34 33 32 32 32 31 31 31 32 33 34 35 37 38 40 41 43
47 43 41 39 38 38 39 38 38 38 41 44 44 46 38 36 36 34 34 37 39 37 37 37 37 36 35 35 34 33 33 33 33 33 34 35 36 37 39 40 42 44 46 47
47 44 43 41 39 39 41 40 40 41 44 48 47 49 44 38 37 34 34 38 41 40 39 38 38 37 36 36 35 35 35 35 35 36 37 38 39 41 43 44 46 48 50 51
48 48 46 43 40 41 42 41 44 46 48 53 47 50 51 43 39 36 36 39 41 41 39 38 37 37 37 36 36 36 37 37 38 39 40 42 43 45 47 48 50 52 53 55
49 49 48 44 43 43 44 44 47 51 52 54 51 52 52 47 42 38 37 38 40 39 38 37 37 37 37 37 37 38 39 39 41 42 44 46 47 49 51 53 54 56 57 59
51 49 48 46 45 46 47 48 50 53 55 56 55 54 50 47 42 37 35 36 37 37 36 36 36 37 37 38 39 40 41 42 44 45 47 49 51 53 55 56 58 59 60 62
53 53 52 50 48 50 52 52 50 53 57 58 57 54 50 45 41 36 34 34 34 34 34 34 35 36 37 39 40 42 43 45 47 49 51 53 55 56 58 59 60 61 63 65
57 58 58 57 55 54 55 55 54 56 58 60 57 54 50 45 40 36 32 31 31 31 32 33 34 36 38 40 42 44 46 48 50 52 54 56 58 59 60 61 63 64 66 68
59 60 61 60 58 55 55 56 56 57 58 58 57 52 49 46 42 36 32 30 30 31 33 35 37 39 41 42 44 47 49 51 53 55 57 59 60 61 62 64 65 67 69 70
56 58 61 61 60 58 58 57 56 55 54 53 53 51 49 47 43 38 35 33 33 35 36 38 40 41 43 45 47 50 52 54 56 58 59 61 62 63 64 66 68 69 71 73
54 56 57 59 61 60 58 54 52 51 51 53 54 51 48 45 43 40 39 38 38 40 41 42 43 45 47 49 51 53 55 57 59 60 62 63 64 65 67 68 70 72 73 74
53 55 55 55 55 56 55 52 50 51 53 54 52 49 46 45 44 44 43 43 44 44 45 46 47 49 51 53 54 56 58 59 61 63 64 65 66 68 69 71 72 74 75 76
55 56 54 53 52 55 56 54 52 53 54 54 52 50 47 47 47 47 48 48 48 49 50 52 53 54 55 56 57 59 60 62 63 65 66 67 69 70 71 73 74 75 76 77
56 57 56 56 54 55 57 56 56 56 55 55 54 52 48 48 50 51 51 52 52 54 55 57 57 58 58 59 60 61 63 64 65 66 67 68 70 71 73 74 75 76 76 77
58 57 58 58 55 57 61 56 57 57 56 55 56 52 50 52 52 53 53 54 56 57 58 59 59 60 61 61 63 64 65 66 66 67 68 69 71 72 73 74 75 76 77 78
59 59 59 59 59 64 60 55 56 57 57 56 56 53 53 54 54 55 56 57 57 58 59 60 61 62 62 63 64 65 66 66 67 67 68 70 71 72 73 75 75 76 77 78
60 59 59 60 63 66 62 60 59 58 58 55 56 56 55 55 56 57 57 57 57 58 59 60 61 62 63 63 64 65 66 66 67 67 69 70 72 73 74 75 75 76 77 78
60 60 61 62 65 66 62 60 60 60 61 56 56 56 56 57 59 57 56 57 59 59 60 60 61 62 63 63 64 65 65 66 66 67 69 71 72 73 73 74 75 76 77 77
60 60 61 62 64 65 60 60 60 61 60 58 58 58 58 59 59 58 59 60 59 59 60 60 61 62 62 63 63 64 65 66 66 68 69 70 71 72 73 75 75 76 76 76
60 60 60 60 61 60 57 57 58 59 59 59 58 58 58 58 59 59 59 59 60 59 59 60 60 61 62 63 64 65 65 66 68 69 70 71 72 73 74 74 74 74 75 74
61 61 61 62 61 59 57 57 58 58 58 59 59 60 60 60 60 59 59 59 59 59 59 60 61 62 63 63 64 65 66 67 68 69 70 71 72 72 73 73 73 73 72 71
62 61 61 61 61 59 59 59 59 59 60 60 61 61 61 61 60 60 60 59 59 60 60 61 62 63 63 64 65 66 67 68 69 70 71 71 72 72 72 73 72 71 69 68
62 62 63 63 62 61 61 60 60 61 61 61 61 61 61 60 60 60 60 60 61 61 62 62 63 63 64 65 66 67 68 69 70 71 71 71 71 72 71 71 69 68 67 67
62 62 62 62 61 61 60 60 60 60 60 60 60 60 60 59 59 59 60 60 61 61 62 63 63 64 65 66 67 68 69 70 70 71 71 71 71 70 69 68 67 67 67 67
Wind_Direction
267 271 275 275 274 276 278 280 280 278 276 274 272 272 273 271 271 272 271 269 269 269 270 271 271 272 271 269 268 267 265 264 265 266 268 270 273 276 278 280 282 284 286 287
268 272 273 272 274 275 276 277 277 275 274 274 273 272 272 273 272 272 272 271 270 271 271 271 271 271 270 268 267 265 264 264 265 267 269 271 275 277 280 283 285 286 288 289
269 271 270 272 273 273 273 274 273 272 274 274 274 272 272 274 274 272 273 273 270 270 271 271 270 270 268 267 266 264 264 265 266 268 271 274 277 280 282 285 286 288 289 291
268 270 270 269 270 270 269 269 270 271 273 275 275 275 272 273 273 274 275 274 271 270 270 270 269 268 266 265 265 264 265 267 269 271 274 277 280 283 285 287 289 290 291 292
266 266 266 267 268 267 268 270 270 270 271 272 274 279 280 277 275 276 274 272 271 271 270 268 267 265 264 264 264 265 267 269 271 274 277 280 283 285 287 289 290 292 293 294
264 266 266 266 266 267 268 268 268 269 270 271 276 279 280 281 281 279 276 272 271 271 269 267 265 263 263 263 264 266 268 271 274 277 279 282 284 286 287 289 291 292 294 295
263 264 266 265 265 264 265 266 267 268 270 274 278 277 279 282 284 283 278 273 270 268 267 265 264 262 263 264 265 268 270 273 276 278 281 283 285 287 288 290 291 293 294 295
262 262 263 264 265 264 262 263 266 271 275 277 277 277 279 282 285 286 279 272 268 265 263 261 261 261 263 265 267 270 273 275 278 280 282 284 285 287 289 290 291 292 294 295
263 264 262 262 261 262 263 265 269 271 273 276 278 281 281 282 286 284 276 269 265 262 260 260 260 262 264 266 269 272 275 277 279 281 283 285 286 288 289 290 291 293 294 295
263 264 264 264 264 264 265 267 267 268 272 275 277 279 281 283 282 279 275 270 264 261 261 261 262 264 266 268 271 274 276 278 280 282 284 286 287 288 289 290 292 293 295 296
260 262 263 264 265 267 266 266 267 268 270 272 277 279 281 280 280 278 275 271 267 264 263 263 264 266 269 271 273 275 277 280 282 284 285 286 288 289 290 291 292 294 295 296
259 261 262 263 265 264 264 265 266 268 271 274 274 274 275 276 278 278 275 272 269 267 266 267 268 270 272 274 276 278 280 282 283 285 286 287 288 290 291 292 293 294 295 296
257 257 259 260 261 262 264 266 268 268 267 268 269 272 274 276 277 276 274 271 270 270 270 272 273 275 276 277 279 281 282 284 285 286 287 288 289 290 291 292 294 295 296 297
255 256 256 258 262 264 265 264 264 263 264 266 269 272 272 272 272 271 271 271 272 273 274 275 276 277 278 280 281 283 284 285 286 287 288 289 290 291 292 293 294 295 296 297
256 257 257 257 257 260 262 263 263 263 265 266 267 267 268 268 270 271 272 273 274 275 276 276 277 278 280 282 283 284 285 286 287 288 289 290 290 291 293 294 294 295 297 298
258 259 259 258 257 258 259 261 263 263 264 265 267 267 269 270 270 270 271 273 274 275 276 277 278 280 282 283 284 285 286 287 288 289 290 290 291 292 293 294 295 296 297 298
259 260 261 261 260 260 257 259 263 266 267 267 266 267 267 267 268 269 271 272 273 274 276 278 279 280 281 282 284 285 286 287 288 289 289 290 291 292 293 293 295 296 297 298
256 258 260 262 260 259 261 262 262 263 264 265 267 267 267 267 268 268 269 271 273 274 276 277 278 279 280 281 282 284 285 286 287 288 289 290 291 291 292 294 295 296 296 297
254 255 257 259 260 262 262 262 263 263 263 264 267 267 267 268 268 268 270 271 272 273 274 275 277 278 279 280 282 283 284 286 287 288 288 289 290 291 292 293 294 295 296 296
253 253 253 256 258 260 263 263 263 264 264 265 267 268 268 267 268 269 270 271 271 273 274 276 277 278 279 280 281 283 284 285 286 287 287 288 289 291 292 292 293 294 295 295
252 253 254 256 258 260 261 263 264 265 266 266 266 266 267 267 269 269 270 272 274 275 276 276 277 278 279 280 281 283 284 285 285 286 287 288 289 290 291 292 293 293 294 294
250 251 253 255 258 261 262 262 262 265 265 266 266 267 268 270 271 272 273 274 275 276 276 277 277 278 279 280 282 283 284 284 285 286 287 288 289 290 290 291 291 292 293 294
252 253 255 256 258 260 261 262 263 264 265 266 267 268 269 271 273 275 275 276 277 277 277 278 279 280 281 282 283 283 283 284 285 286 287 288 289 289 290 290 291 292 293 293
251 252 255 256 257 259 261 261 262 264 265 266 268 269 271 273 275 276 277 277 278 278 279 280 281 281 282 282 283 283 284 285 286 286 287 287 288 288 289 290 291 291 292 292
253 254 256 258 259 261 262 264 265 266 268 270 271 273 274 275 276 276 277 277 278 279 280 280 280 281 281 282 282 283 284 284 285 285 286 287 287 288 289 290 290 290 291 292
256 258 260 262 263 264 266 267 268 270 271 273 274 275 275 276 276 277 277 277 278 278 279 279 280 280 280 281 282 283 283 283 284 285 285 286 287 288 288 289 289 290 291 292